カタログに戻る

STARLINK-38144

運用中通信SSO
NORAD 100256·PAYLOAD·🇺🇸 United States

打ち上げ Aug 8, 2026 から Vandenberg Space Force Base

Loading…

次のパス (今後24時間)

TLE

最新Source: Space-Track

元期: Sep 14, 2026, 01:28 UTC

1 A0256U 26181L   26257.06157468  .00151318  00000-0  99337-3 0  9993
2 A0256  97.2825 300.2895 0003368  84.0131 276.1518 15.75281397  6949

AllMySatでSTARLINK-38144をリアルタイム追跡

Download on the App Store